Weather in Santiago del Estero

Argentina     27°47′45″S   64°16′14″W
temp.,
°C
wind,
m/s
gust,
m/s
humid.,
%
clouds,
%
prec.,
mm/h
press.,
hPa
HPBL,
m
4 july, mon
mon400:00+11ese22715 0.0 101542
03:00+10se22740 0.0 101324
06:00+10s33765 0.0 101347
09:00+11ssw357157 0.0 1015142
12:00+16s4457100 0.0 1016463
15:00+17s455382 0.0 1013570
18:00+17sse245196 0.0 1014381
21:00+16s225392 0.0 101635
5 july, tue
tue500:00+16ssw3454100 0.0 1016115
03:00+13s23656 0.0 101557
06:00+11s237565 0.0 101545
09:00+13s3479100 0.0 1016160
12:00+15sse2378100 0.0 1016397
15:00+17sse3366100 0.0 1013606
18:00+17se2268100 0.0 101284
21:00+13nne1181100 0.0 101313
6 july, wed
wed600:00+13n228343 0.0 101319
03:00+12wnw238892 0.0 101037
06:00+11nnw22895 0.0 100917
09:00+13nnw22865 0.0 100970
12:00+19nne246514 0.0 1008672
15:00+23n235329 0.0 10051205
18:00+22nne226069 0.0 100427
21:00+18n22745 0.0 100613
7 july, thu
thu700:00+17w33785 0.0 100633
03:00+16wnw3471100 0.0 100554
06:00+15nnw337392 0.0 100529
09:00+16se815633 0.0 1012569
12:00+16sse91341100 0.0 1016858
15:00+19sse682978 0.0 10151170
18:00+17ese5831100 0.0 1016681
21:00+16se3724100 0.0 1019460
8 july, fri
fri800:00+15se4726100 0.0 1018620
03:00+14se363498 0.0 1017392
06:00+14sse2537100 0.0 1015332
09:00+14sse2336100 0.0 1016321
12:00+15s2236100 0.0 1015653
15:00+18e22380 0.0 1011795
18:00+18e234633 0.0 1010238
21:00+14ese2356100 0.0 101256